#	Date Time	Temp �C 
1	6/10/2014 17:24	23.966
2	6/10/2014 17:39	24.158
3	6/10/2014 17:54	23.581
4	6/10/2014 18:09	23.196
5	6/10/2014 18:24	23.004
6	6/10/2014 18:39	22.908
7	6/10/2014 18:54	22.908
8	6/10/2014 19:09	22.908
9	6/10/2014 19:24	23.004
10	6/10/2014 19:39	23.004
11	6/10/2014 19:54	22.908
12	6/10/2014 20:09	22.812
13	6/10/2014 20:24	22.717
14	6/10/2014 20:39	22.621
15	6/10/2014 20:54	22.525
16	6/10/2014 21:09	22.429
17	6/10/2014 21:24	22.333
18	6/10/2014 21:39	22.142
19	6/10/2014 21:54	21.951
20	6/10/2014 22:09	21.76
21	6/10/2014 22:24	21.569
22	6/10/2014 22:39	21.378
23	6/10/2014 22:54	21.091
24	6/10/2014 23:09	20.901
25	6/10/2014 23:24	20.71
26	6/10/2014 23:39	20.519
27	6/10/2014 23:54	20.329
28	6/11/2014 0:09	20.234
29	6/11/2014 0:24	19.948
30	6/11/2014 0:39	19.758
31	6/11/2014 0:54	19.472
32	6/11/2014 1:09	19.187
33	6/11/2014 1:24	18.901
34	6/11/2014 1:39	18.616
35	6/11/2014 1:54	18.331
36	6/11/2014 2:09	18.14
37	6/11/2014 2:24	17.855
38	6/11/2014 2:39	17.57
39	6/11/2014 2:54	17.284
40	6/11/2014 3:09	16.999
41	6/11/2014 3:24	16.808
42	6/11/2014 3:39	16.523
43	6/11/2014 3:54	16.332
44	6/11/2014 4:09	16.046
45	6/11/2014 4:24	15.76
46	6/11/2014 4:39	15.569
47	6/11/2014 4:54	15.378
48	6/11/2014 5:09	15.187
49	6/11/2014 5:24	14.996
50	6/11/2014 5:39	14.804
51	6/11/2014 5:54	14.613
52	6/11/2014 6:09	14.421
53	6/11/2014 6:24	14.325
54	6/11/2014 6:39	14.23
55	6/11/2014 6:54	14.134
56	6/11/2014 7:09	14.038
57	6/11/2014 7:24	14.038
58	6/11/2014 7:39	13.942
59	6/11/2014 7:54	13.942
60	6/11/2014 8:09	14.038
61	6/11/2014 8:24	14.23
62	6/11/2014 8:39	14.613
63	6/11/2014 8:54	14.9
64	6/11/2014 9:09	15.282
65	6/11/2014 9:24	15.569
66	6/11/2014 9:39	15.951
67	6/11/2014 9:54	16.523
68	6/11/2014 10:09	16.999
69	6/11/2014 10:24	17.379
70	6/11/2014 10:39	17.665
71	6/11/2014 10:54	18.426
72	6/11/2014 11:09	20.043
73	6/11/2014 11:24	20.901
74	6/11/2014 11:39	23.677
75	6/11/2014 11:54	29.452
76	6/11/2014 12:09	34.163
77	6/11/2014 12:24	36.837
78	6/11/2014 12:39	39.05
79	6/11/2014 12:54	39.957
80	6/11/2014 13:09	41.692
81	6/11/2014 13:24	43.238
82	6/11/2014 13:39	44.828
83	6/11/2014 13:54	45.326
84	6/11/2014 14:09	45.956
85	6/11/2014 14:24	45.201
86	6/11/2014 14:39	42.639
87	6/11/2014 14:54	39.389
88	6/11/2014 15:09	36.62
89	6/11/2014 15:24	34.903
90	6/11/2014 15:39	40.53
91	6/11/2014 15:54	49.36
92	6/11/2014 16:09	32.807
93	6/11/2014 16:24	20.138
94	6/11/2014 16:39	13.846
95	6/11/2014 16:54	13.846
96	6/11/2014 17:09	13.846
97	6/11/2014 17:24	13.846
98	6/11/2014 17:39	13.846
99	6/11/2014 17:54	13.846
100	6/11/2014 18:09	13.846
101	6/11/2014 18:24	14.038
102	6/11/2014 18:39	14.038
103	6/11/2014 18:54	13.846
104	6/11/2014 19:09	13.846
105	6/11/2014 19:24	13.558
106	6/11/2014 19:39	13.461
107	6/11/2014 19:54	13.558
108	6/11/2014 20:09	13.558
109	6/11/2014 20:24	13.365
110	6/11/2014 20:39	13.365
111	6/11/2014 20:54	13.269
112	6/11/2014 21:09	13.269
113	6/11/2014 21:24	13.173
114	6/11/2014 21:39	13.173
115	6/11/2014 21:54	13.076
116	6/11/2014 22:09	12.98
117	6/11/2014 22:24	12.883
118	6/11/2014 22:39	12.69
119	6/11/2014 22:54	12.69
120	6/11/2014 23:09	12.883
121	6/11/2014 23:24	12.787
122	6/11/2014 23:39	12.69
123	6/11/2014 23:54	12.69
124	6/12/2014 0:09	12.69
125	6/12/2014 0:24	12.69
126	6/12/2014 0:39	12.69
127	6/12/2014 0:54	12.883
128	6/12/2014 1:09	12.883
129	6/12/2014 1:24	13.076
130	6/12/2014 1:39	13.461
131	6/12/2014 1:54	13.558
132	6/12/2014 2:09	13.654
133	6/12/2014 2:24	13.558
134	6/12/2014 2:39	13.75
135	6/12/2014 2:54	13.846
136	6/12/2014 3:09	13.75
137	6/12/2014 3:24	13.461
138	6/12/2014 3:39	13.365
139	6/12/2014 3:54	13.365
140	6/12/2014 4:09	13.365
141	6/12/2014 4:24	13.173
142	6/12/2014 4:39	13.558
143	6/12/2014 4:54	13.461
144	6/12/2014 5:09	13.269
145	6/12/2014 5:24	13.365
146	6/12/2014 5:39	13.365
147	6/12/2014 5:54	13.461
148	6/12/2014 6:09	13.269
149	6/12/2014 6:24	13.173
150	6/12/2014 6:39	13.269
151	6/12/2014 6:54	13.173
152	6/12/2014 7:09	13.173
153	6/12/2014 7:24	13.076
154	6/12/2014 7:39	12.98
155	6/12/2014 7:54	12.98
156	6/12/2014 8:09	12.98
157	6/12/2014 8:24	12.98
158	6/12/2014 8:39	12.98
159	6/12/2014 8:54	12.98
160	6/12/2014 9:09	12.98
161	6/12/2014 9:24	12.883
162	6/12/2014 9:39	12.787
163	6/12/2014 9:54	12.787
164	6/12/2014 10:09	12.883
165	6/12/2014 10:24	12.883
166	6/12/2014 10:39	12.98
167	6/12/2014 10:54	12.98
168	6/12/2014 11:09	13.076
169	6/12/2014 11:24	13.076
170	6/12/2014 11:39	13.269
171	6/12/2014 11:54	13.269
172	6/12/2014 12:09	13.365
173	6/12/2014 12:24	13.365
174	6/12/2014 12:39	13.269
175	6/12/2014 12:54	13.365
176	6/12/2014 13:09	13.365
177	6/12/2014 13:24	13.269
178	6/12/2014 13:39	13.269
179	6/12/2014 13:54	13.269
180	6/12/2014 14:09	12.787
181	6/12/2014 14:24	12.013
182	6/12/2014 14:39	11.722
183	6/12/2014 14:54	11.625
184	6/12/2014 15:09	11.528
185	6/12/2014 15:24	11.334
186	6/12/2014 15:39	11.334
187	6/12/2014 15:54	11.334
188	6/12/2014 16:09	12.401
189	6/12/2014 16:24	12.497
190	6/12/2014 16:39	12.497
191	6/12/2014 16:54	12.69
192	6/12/2014 17:09	12.69
193	6/12/2014 17:24	12.69
194	6/12/2014 17:39	12.69
195	6/12/2014 17:54	13.076
196	6/12/2014 18:09	13.076
197	6/12/2014 18:24	13.076
198	6/12/2014 18:39	13.173
199	6/12/2014 18:54	13.173
200	6/12/2014 19:09	13.076
201	6/12/2014 19:24	13.173
202	6/12/2014 19:39	13.173
203	6/12/2014 19:54	13.173
204	6/12/2014 20:09	13.076
205	6/12/2014 20:24	12.98
206	6/12/2014 20:39	12.98
207	6/12/2014 20:54	12.98
208	6/12/2014 21:09	12.98
209	6/12/2014 21:24	12.883
210	6/12/2014 21:39	12.883
211	6/12/2014 21:54	12.98
212	6/12/2014 22:09	12.883
213	6/12/2014 22:24	12.883
214	6/12/2014 22:39	12.883
215	6/12/2014 22:54	12.787
216	6/12/2014 23:09	12.69
217	6/12/2014 23:24	12.69
218	6/12/2014 23:39	12.594
219	6/12/2014 23:54	12.594
220	6/13/2014 0:09	12.69
221	6/13/2014 0:24	12.69
222	6/13/2014 0:39	12.69
223	6/13/2014 0:54	12.69
224	6/13/2014 1:09	12.69
225	6/13/2014 1:24	12.69
226	6/13/2014 1:39	12.69
227	6/13/2014 1:54	12.69
228	6/13/2014 2:09	12.69
229	6/13/2014 2:24	12.69
230	6/13/2014 2:39	12.69
231	6/13/2014 2:54	12.787
232	6/13/2014 3:09	12.787
233	6/13/2014 3:24	12.69
234	6/13/2014 3:39	12.594
235	6/13/2014 3:54	12.497
236	6/13/2014 4:09	12.497
237	6/13/2014 4:24	12.497
238	6/13/2014 4:39	12.497
239	6/13/2014 4:54	12.594
240	6/13/2014 5:09	12.594
241	6/13/2014 5:24	12.594
242	6/13/2014 5:39	12.497
243	6/13/2014 5:54	12.304
244	6/13/2014 6:09	12.304
245	6/13/2014 6:24	12.304
246	6/13/2014 6:39	12.304
247	6/13/2014 6:54	12.304
248	6/13/2014 7:09	12.304
249	6/13/2014 7:24	12.304
250	6/13/2014 7:39	12.304
251	6/13/2014 7:54	12.304
252	6/13/2014 8:09	12.304
253	6/13/2014 8:24	12.304
254	6/13/2014 8:39	12.401
255	6/13/2014 8:54	12.497
256	6/13/2014 9:09	12.594
257	6/13/2014 9:24	12.594
258	6/13/2014 9:39	12.594
259	6/13/2014 9:54	12.594
260	6/13/2014 10:09	12.594
261	6/13/2014 10:24	12.69
262	6/13/2014 10:39	12.69
263	6/13/2014 10:54	12.69
264	6/13/2014 11:09	12.69
265	6/13/2014 11:24	12.787
266	6/13/2014 11:39	12.787
267	6/13/2014 11:54	12.883
268	6/13/2014 12:09	12.883
269	6/13/2014 12:24	12.883
270	6/13/2014 12:39	12.98
271	6/13/2014 12:54	12.98
272	6/13/2014 13:09	13.076
273	6/13/2014 13:24	13.076
274	6/13/2014 13:39	13.076
275	6/13/2014 13:54	13.076
276	6/13/2014 14:09	13.076
277	6/13/2014 14:24	13.076
278	6/13/2014 14:39	13.076
279	6/13/2014 14:54	13.076
280	6/13/2014 15:09	12.304
281	6/13/2014 15:24	11.819
282	6/13/2014 15:39	11.819
283	6/13/2014 15:54	11.625
284	6/13/2014 16:09	11.528
285	6/13/2014 16:24	11.431
286	6/13/2014 16:39	11.431
287	6/13/2014 16:54	11.334
288	6/13/2014 17:09	11.236
289	6/13/2014 17:24	11.236
290	6/13/2014 17:39	11.236
291	6/13/2014 17:54	11.139
292	6/13/2014 18:09	11.236
293	6/13/2014 18:24	11.236
294	6/13/2014 18:39	11.139
295	6/13/2014 18:54	11.139
296	6/13/2014 19:09	11.139
297	6/13/2014 19:24	11.139
298	6/13/2014 19:39	11.139
299	6/13/2014 19:54	11.236
300	6/13/2014 20:09	11.236
301	6/13/2014 20:24	11.236
302	6/13/2014 20:39	11.334
303	6/13/2014 20:54	11.334
304	6/13/2014 21:09	11.334
305	6/13/2014 21:24	11.334
306	6/13/2014 21:39	11.334
307	6/13/2014 21:54	11.431
308	6/13/2014 22:09	11.431
309	6/13/2014 22:24	11.431
310	6/13/2014 22:39	11.431
311	6/13/2014 22:54	11.431
312	6/13/2014 23:09	11.431
313	6/13/2014 23:24	11.431
314	6/13/2014 23:39	11.722
315	6/13/2014 23:54	12.11
316	6/14/2014 0:09	12.11
317	6/14/2014 0:24	12.304
318	6/14/2014 0:39	12.304
319	6/14/2014 0:54	12.304
320	6/14/2014 1:09	12.304
321	6/14/2014 1:24	12.207
322	6/14/2014 1:39	12.207
323	6/14/2014 1:54	12.11
324	6/14/2014 2:09	12.207
325	6/14/2014 2:24	12.207
326	6/14/2014 2:39	12.207
327	6/14/2014 2:54	12.11
328	6/14/2014 3:09	12.11
329	6/14/2014 3:24	12.013
330	6/14/2014 3:39	12.11
331	6/14/2014 3:54	12.11
332	6/14/2014 4:09	12.11
333	6/14/2014 4:24	12.11
334	6/14/2014 4:39	12.11
335	6/14/2014 4:54	12.11
336	6/14/2014 5:09	12.013
337	6/14/2014 5:24	12.013
338	6/14/2014 5:39	12.013
339	6/14/2014 5:54	11.819
340	6/14/2014 6:09	11.916
341	6/14/2014 6:24	11.916
342	6/14/2014 6:39	11.916
343	6/14/2014 6:54	11.722
344	6/14/2014 7:09	11.722
345	6/14/2014 7:24	11.625
346	6/14/2014 7:39	11.625
347	6/14/2014 7:54	11.528
348	6/14/2014 8:09	11.625
349	6/14/2014 8:24	11.819
350	6/14/2014 8:39	11.819
351	6/14/2014 8:54	11.916
352	6/14/2014 9:09	11.916
353	6/14/2014 9:24	11.916
354	6/14/2014 9:39	12.11
355	6/14/2014 9:54	12.304
356	6/14/2014 10:09	12.304
357	6/14/2014 10:24	12.304
358	6/14/2014 10:39	12.304
359	6/14/2014 10:54	12.304
360	6/14/2014 11:09	12.401
361	6/14/2014 11:24	12.497
362	6/14/2014 11:39	12.594
363	6/14/2014 11:54	12.594
364	6/14/2014 12:09	12.787
365	6/14/2014 12:24	12.787
366	6/14/2014 12:39	12.787
367	6/14/2014 12:54	12.69
368	6/14/2014 13:09	12.787
369	6/14/2014 13:24	12.787
370	6/14/2014 13:39	12.883
371	6/14/2014 13:54	12.883
372	6/14/2014 14:09	12.883
373	6/14/2014 14:24	12.883
374	6/14/2014 14:39	12.883
375	6/14/2014 14:54	12.787
376	6/14/2014 15:09	12.787
377	6/14/2014 15:24	12.787
378	6/14/2014 15:39	12.594
379	6/14/2014 15:54	12.013
380	6/14/2014 16:09	11.819
381	6/14/2014 16:24	11.528
382	6/14/2014 16:39	11.431
383	6/14/2014 16:54	11.236
384	6/14/2014 17:09	11.236
385	6/14/2014 17:24	11.236
386	6/14/2014 17:39	11.236
387	6/14/2014 17:54	11.236
388	6/14/2014 18:09	11.334
389	6/14/2014 18:24	11.334
390	6/14/2014 18:39	11.236
391	6/14/2014 18:54	11.236
392	6/14/2014 19:09	11.139
393	6/14/2014 19:24	11.139
394	6/14/2014 19:39	11.041
395	6/14/2014 19:54	11.041
396	6/14/2014 20:09	11.041
397	6/14/2014 20:24	11.041
398	6/14/2014 20:39	10.944
399	6/14/2014 20:54	10.944
400	6/14/2014 21:09	11.041
401	6/14/2014 21:24	11.041
402	6/14/2014 21:39	11.041
403	6/14/2014 21:54	11.041
404	6/14/2014 22:09	11.041
405	6/14/2014 22:24	11.041
406	6/14/2014 22:39	11.041
407	6/14/2014 22:54	11.041
408	6/14/2014 23:09	11.041
409	6/14/2014 23:24	11.139
410	6/14/2014 23:39	11.139
411	6/14/2014 23:54	11.236
412	6/15/2014 0:09	11.334
413	6/15/2014 0:24	11.431
414	6/15/2014 0:39	11.722
415	6/15/2014 0:54	12.013
416	6/15/2014 1:09	12.11
417	6/15/2014 1:24	12.11
418	6/15/2014 1:39	11.916
419	6/15/2014 1:54	11.916
420	6/15/2014 2:09	12.013
421	6/15/2014 2:24	12.013
422	6/15/2014 2:39	12.013
423	6/15/2014 2:54	12.013
424	6/15/2014 3:09	12.013
425	6/15/2014 3:24	12.013
426	6/15/2014 3:39	12.013
427	6/15/2014 3:54	12.013
428	6/15/2014 4:09	12.013
429	6/15/2014 4:24	12.013
430	6/15/2014 4:39	12.013
431	6/15/2014 4:54	11.916
432	6/15/2014 5:09	11.916
433	6/15/2014 5:24	11.916
434	6/15/2014 5:39	11.722
435	6/15/2014 5:54	11.431
436	6/15/2014 6:09	11.334
437	6/15/2014 6:24	11.236
438	6/15/2014 6:39	11.236
439	6/15/2014 6:54	11.236
440	6/15/2014 7:09	11.236
441	6/15/2014 7:24	11.334
442	6/15/2014 7:39	11.528
443	6/15/2014 7:54	11.528
444	6/15/2014 8:09	11.528
445	6/15/2014 8:24	11.528
446	6/15/2014 8:39	11.528
447	6/15/2014 8:54	11.528
448	6/15/2014 9:09	11.528
449	6/15/2014 9:24	11.528
450	6/15/2014 9:39	11.625
451	6/15/2014 9:54	11.625
452	6/15/2014 10:09	11.722
453	6/15/2014 10:24	11.916
454	6/15/2014 10:39	12.207
455	6/15/2014 10:54	12.304
456	6/15/2014 11:09	12.304
457	6/15/2014 11:24	12.401
458	6/15/2014 11:39	12.401
459	6/15/2014 11:54	12.207
460	6/15/2014 12:09	12.401
461	6/15/2014 12:24	12.497
462	6/15/2014 12:39	12.497
463	6/15/2014 12:54	12.497
464	6/15/2014 13:09	12.497
465	6/15/2014 13:24	12.594
466	6/15/2014 13:39	12.594
467	6/15/2014 13:54	12.594
468	6/15/2014 14:09	12.69
469	6/15/2014 14:24	12.69
470	6/15/2014 14:39	12.69
471	6/15/2014 14:54	12.69
472	6/15/2014 15:09	12.69
473	6/15/2014 15:24	12.69
474	6/15/2014 15:39	12.69
475	6/15/2014 15:54	12.69
476	6/15/2014 16:09	12.594
477	6/15/2014 16:24	12.594
478	6/15/2014 16:39	11.916
479	6/15/2014 16:54	11.528
480	6/15/2014 17:09	11.334
481	6/15/2014 17:24	11.236
482	6/15/2014 17:39	11.139
483	6/15/2014 17:54	11.139
484	6/15/2014 18:09	11.236
485	6/15/2014 18:24	11.236
486	6/15/2014 18:39	11.236
487	6/15/2014 18:54	11.334
488	6/15/2014 19:09	11.334
489	6/15/2014 19:24	11.236
490	6/15/2014 19:39	11.139
491	6/15/2014 19:54	11.041
492	6/15/2014 20:09	11.041
493	6/15/2014 20:24	10.944
494	6/15/2014 20:39	10.944
495	6/15/2014 20:54	10.944
496	6/15/2014 21:09	10.944
497	6/15/2014 21:24	10.944
498	6/15/2014 21:39	11.041
499	6/15/2014 21:54	11.041
500	6/15/2014 22:09	11.041
501	6/15/2014 22:24	11.041
502	6/15/2014 22:39	11.041
503	6/15/2014 22:54	11.041
504	6/15/2014 23:09	11.041
505	6/15/2014 23:24	11.041
506	6/15/2014 23:39	11.041
507	6/15/2014 23:54	11.139
508	6/16/2014 0:09	11.139
509	6/16/2014 0:24	11.236
510	6/16/2014 0:39	11.236
511	6/16/2014 0:54	11.236
512	6/16/2014 1:09	11.625
513	6/16/2014 1:24	11.916
514	6/16/2014 1:39	11.916
515	6/16/2014 1:54	11.916
516	6/16/2014 2:09	11.819
517	6/16/2014 2:24	11.722
518	6/16/2014 2:39	11.722
519	6/16/2014 2:54	11.819
520	6/16/2014 3:09	11.819
521	6/16/2014 3:24	11.819
522	6/16/2014 3:39	11.819
523	6/16/2014 3:54	11.916
524	6/16/2014 4:09	12.013
525	6/16/2014 4:24	11.916
526	6/16/2014 4:39	11.916
527	6/16/2014 4:54	11.916
528	6/16/2014 5:09	11.916
529	6/16/2014 5:24	11.916
530	6/16/2014 5:39	11.916
531	6/16/2014 5:54	11.916
532	6/16/2014 6:09	11.916
533	6/16/2014 6:24	11.916
534	6/16/2014 6:39	11.625
535	6/16/2014 6:54	11.431
536	6/16/2014 7:09	11.334
537	6/16/2014 7:24	11.334
538	6/16/2014 7:39	11.334
539	6/16/2014 7:54	11.431
540	6/16/2014 8:09	11.334
541	6/16/2014 8:24	11.431
542	6/16/2014 8:39	11.528
543	6/16/2014 8:54	11.528
544	6/16/2014 9:09	11.431
545	6/16/2014 9:24	11.431
546	6/16/2014 9:39	11.528
547	6/16/2014 9:54	11.528
548	6/16/2014 10:09	11.528
549	6/16/2014 10:24	11.528
550	6/16/2014 10:39	11.625
551	6/16/2014 10:54	11.625
552	6/16/2014 11:09	11.722
553	6/16/2014 11:24	11.916
554	6/16/2014 11:39	12.013
555	6/16/2014 11:54	12.11
556	6/16/2014 12:09	12.11
557	6/16/2014 12:24	12.207
558	6/16/2014 12:39	12.11
559	6/16/2014 12:54	12.207
560	6/16/2014 13:09	12.207
561	6/16/2014 13:24	12.304
562	6/16/2014 13:39	12.207
563	6/16/2014 13:54	12.401
564	6/16/2014 14:09	12.401
565	6/16/2014 14:24	12.401
566	6/16/2014 14:39	12.401
567	6/16/2014 14:54	12.497
568	6/16/2014 15:09	12.497
569	6/16/2014 15:24	12.594
570	6/16/2014 15:39	12.594
571	6/16/2014 15:54	12.69
572	6/16/2014 16:09	12.594
573	6/16/2014 16:24	12.594
574	6/16/2014 16:39	12.594
575	6/16/2014 16:54	12.787
576	6/16/2014 17:09	12.69
577	6/16/2014 17:24	12.594
578	6/16/2014 17:39	12.207
579	6/16/2014 17:54	12.013
580	6/16/2014 18:09	11.819
581	6/16/2014 18:24	11.625
582	6/16/2014 18:39	11.528
583	6/16/2014 18:54	11.431
584	6/16/2014 19:09	11.334
585	6/16/2014 19:24	11.334
586	6/16/2014 19:39	11.139
587	6/16/2014 19:54	11.041
588	6/16/2014 20:09	11.041
589	6/16/2014 20:24	11.041
590	6/16/2014 20:39	11.041
591	6/16/2014 20:54	11.041
592	6/16/2014 21:09	11.041
593	6/16/2014 21:24	11.041
594	6/16/2014 21:39	11.041
595	6/16/2014 21:54	11.041
596	6/16/2014 22:09	11.041
597	6/16/2014 22:24	11.041
598	6/16/2014 22:39	11.041
599	6/16/2014 22:54	11.041
600	6/16/2014 23:09	11.139
601	6/16/2014 23:24	11.139
602	6/16/2014 23:39	11.139
603	6/16/2014 23:54	11.139
604	6/17/2014 0:09	11.139
605	6/17/2014 0:24	11.139
606	6/17/2014 0:39	11.139
607	6/17/2014 0:54	11.139
608	6/17/2014 1:09	11.139
609	6/17/2014 1:24	11.236
610	6/17/2014 1:39	11.334
611	6/17/2014 1:54	11.528
612	6/17/2014 2:09	11.916
613	6/17/2014 2:24	11.916
614	6/17/2014 2:39	11.819
615	6/17/2014 2:54	11.819
616	6/17/2014 3:09	11.819
617	6/17/2014 3:24	11.916
618	6/17/2014 3:39	11.916
619	6/17/2014 3:54	11.916
620	6/17/2014 4:09	11.916
621	6/17/2014 4:24	11.916
622	6/17/2014 4:39	12.013
623	6/17/2014 4:54	12.013
624	6/17/2014 5:09	12.013
625	6/17/2014 5:24	11.916
626	6/17/2014 5:39	11.916
627	6/17/2014 5:54	11.916
628	6/17/2014 6:09	11.916
629	6/17/2014 6:24	11.819
630	6/17/2014 6:39	11.916
631	6/17/2014 6:54	11.916
632	6/17/2014 7:09	11.916
633	6/17/2014 7:24	11.916
634	6/17/2014 7:39	11.819
635	6/17/2014 7:54	11.625
636	6/17/2014 8:09	11.528
637	6/17/2014 8:24	11.528
638	6/17/2014 8:39	11.722
639	6/17/2014 8:54	11.528
640	6/17/2014 9:09	11.431
641	6/17/2014 9:24	11.431
642	6/17/2014 9:39	11.431
643	6/17/2014 9:54	11.431
644	6/17/2014 10:09	11.528
645	6/17/2014 10:24	11.528
646	6/17/2014 10:39	11.431
647	6/17/2014 10:54	11.528
648	6/17/2014 11:09	11.528
649	6/17/2014 11:24	11.625
650	6/17/2014 11:39	11.625
651	6/17/2014 11:54	11.722
652	6/17/2014 12:09	11.722
653	6/17/2014 12:24	11.916
654	6/17/2014 12:39	12.013
655	6/17/2014 12:54	12.013
656	6/17/2014 13:09	12.11
657	6/17/2014 13:24	12.207
658	6/17/2014 13:39	12.11
659	6/17/2014 13:54	12.11
660	6/17/2014 14:09	12.207
661	6/17/2014 14:24	12.207
662	6/17/2014 14:39	12.207
663	6/17/2014 14:54	12.207
664	6/17/2014 15:09	12.207
665	6/17/2014 15:24	12.304
666	6/17/2014 15:39	12.401
667	6/17/2014 15:54	12.401
668	6/17/2014 16:09	12.401
669	6/17/2014 16:24	12.401
670	6/17/2014 16:39	12.401
671	6/17/2014 16:54	12.401
672	6/17/2014 17:09	12.401
673	6/17/2014 17:24	12.304
674	6/17/2014 17:39	12.401
675	6/17/2014 17:54	12.304
676	6/17/2014 18:09	12.401
677	6/17/2014 18:24	12.401
678	6/17/2014 18:39	12.304
679	6/17/2014 18:54	11.916
680	6/17/2014 19:09	11.625
681	6/17/2014 19:24	11.431
682	6/17/2014 19:39	11.334
683	6/17/2014 19:54	11.236
684	6/17/2014 20:09	11.236
685	6/17/2014 20:24	11.139
686	6/17/2014 20:39	11.139
687	6/17/2014 20:54	11.041
688	6/17/2014 21:09	11.041
689	6/17/2014 21:24	11.041
690	6/17/2014 21:39	11.041
691	6/17/2014 21:54	11.041
692	6/17/2014 22:09	11.041
693	6/17/2014 22:24	11.041
694	6/17/2014 22:39	11.041
695	6/17/2014 22:54	11.041
696	6/17/2014 23:09	11.041
697	6/17/2014 23:24	11.041
698	6/17/2014 23:39	11.041
699	6/17/2014 23:54	11.041
700	6/18/2014 0:09	11.139
701	6/18/2014 0:24	11.041
702	6/18/2014 0:39	11.139
703	6/18/2014 0:54	11.139
704	6/18/2014 1:09	11.139
705	6/18/2014 1:24	11.139
706	6/18/2014 1:39	11.139
707	6/18/2014 1:54	11.236
708	6/18/2014 2:09	11.139
709	6/18/2014 2:24	11.236
710	6/18/2014 2:39	11.625
711	6/18/2014 2:54	11.722
712	6/18/2014 3:09	11.722
713	6/18/2014 3:24	11.722
714	6/18/2014 3:39	11.722
715	6/18/2014 3:54	11.722
716	6/18/2014 4:09	11.722
717	6/18/2014 4:24	11.625
718	6/18/2014 4:39	11.722
719	6/18/2014 4:54	11.722
720	6/18/2014 5:09	11.722
721	6/18/2014 5:24	11.819
722	6/18/2014 5:39	11.819
723	6/18/2014 5:54	11.916
724	6/18/2014 6:09	11.916
725	6/18/2014 6:24	11.916
726	6/18/2014 6:39	11.916
727	6/18/2014 6:54	11.916
728	6/18/2014 7:09	11.916
729	6/18/2014 7:24	11.916
730	6/18/2014 7:39	11.916
731	6/18/2014 7:54	11.916
732	6/18/2014 8:09	11.916
733	6/18/2014 8:24	11.916
734	6/18/2014 8:39	11.819
735	6/18/2014 8:54	11.819
736	6/18/2014 9:09	11.819
737	6/18/2014 9:24	11.819
738	6/18/2014 9:39	11.722
739	6/18/2014 9:54	11.625
740	6/18/2014 10:09	11.625
741	6/18/2014 10:24	11.528
742	6/18/2014 10:39	11.528
743	6/18/2014 10:54	11.528
744	6/18/2014 11:09	11.625
745	6/18/2014 11:24	11.625
746	6/18/2014 11:39	11.625
747	6/18/2014 11:54	11.528
748	6/18/2014 12:09	11.528
749	6/18/2014 12:24	11.625
750	6/18/2014 12:39	11.722
751	6/18/2014 12:54	11.722
752	6/18/2014 13:09	11.722
753	6/18/2014 13:24	11.819
754	6/18/2014 13:39	11.916
755	6/18/2014 13:54	11.916
756	6/18/2014 14:09	12.013
757	6/18/2014 14:24	12.013
758	6/18/2014 14:39	12.013
759	6/18/2014 14:54	12.11
760	6/18/2014 15:09	12.11
761	6/18/2014 15:24	12.11
762	6/18/2014 15:39	12.11
763	6/18/2014 15:54	12.207
764	6/18/2014 16:09	12.207
765	6/18/2014 16:24	12.207
766	6/18/2014 16:39	12.207
767	6/18/2014 16:54	12.207
768	6/18/2014 17:09	12.207
769	6/18/2014 17:24	12.207
770	6/18/2014 17:39	12.304
771	6/18/2014 17:54	12.304
772	6/18/2014 18:09	12.304
773	6/18/2014 18:24	12.304
774	6/18/2014 18:39	12.401
775	6/18/2014 18:54	12.401
776	6/18/2014 19:09	12.401
777	6/18/2014 19:24	12.304
778	6/18/2014 19:39	12.013
779	6/18/2014 19:54	11.916
780	6/18/2014 20:09	11.722
781	6/18/2014 20:24	11.528
782	6/18/2014 20:39	11.431
783	6/18/2014 20:54	11.431
784	6/18/2014 21:09	11.334
785	6/18/2014 21:24	11.334
786	6/18/2014 21:39	11.236
787	6/18/2014 21:54	11.139
788	6/18/2014 22:09	11.139
789	6/18/2014 22:24	11.041
790	6/18/2014 22:39	11.041
791	6/18/2014 22:54	11.041
792	6/18/2014 23:09	11.041
793	6/18/2014 23:24	11.041
794	6/18/2014 23:39	11.041
795	6/18/2014 23:54	11.041
796	6/19/2014 0:09	11.041
797	6/19/2014 0:24	11.139
798	6/19/2014 0:39	11.139
799	6/19/2014 0:54	11.139
800	6/19/2014 1:09	11.236
801	6/19/2014 1:24	11.236
802	6/19/2014 1:39	11.236
803	6/19/2014 1:54	11.139
804	6/19/2014 2:09	11.139
805	6/19/2014 2:24	11.236
806	6/19/2014 2:39	11.236
807	6/19/2014 2:54	11.236
808	6/19/2014 3:09	11.334
809	6/19/2014 3:24	11.625
810	6/19/2014 3:39	11.722
811	6/19/2014 3:54	11.722
812	6/19/2014 4:09	11.722
813	6/19/2014 4:24	11.722
814	6/19/2014 4:39	11.722
815	6/19/2014 4:54	11.722
816	6/19/2014 5:09	11.819
817	6/19/2014 5:24	11.819
818	6/19/2014 5:39	11.819
819	6/19/2014 5:54	11.819
820	6/19/2014 6:09	11.819
821	6/19/2014 6:24	11.819
822	6/19/2014 6:39	11.916
823	6/19/2014 6:54	11.916
824	6/19/2014 7:09	11.916
825	6/19/2014 7:24	11.916
826	6/19/2014 7:39	11.916
827	6/19/2014 7:54	11.916
828	6/19/2014 8:09	11.916
829	6/19/2014 8:24	11.916
830	6/19/2014 8:39	11.916
831	6/19/2014 8:54	11.916
832	6/19/2014 9:09	11.916
833	6/19/2014 9:24	11.916
834	6/19/2014 9:39	11.916
835	6/19/2014 9:54	11.916
836	6/19/2014 10:09	11.916
837	6/19/2014 10:24	11.722
838	6/19/2014 10:39	11.431
839	6/19/2014 10:54	11.334
840	6/19/2014 11:09	11.236
841	6/19/2014 11:24	11.139
842	6/19/2014 11:39	11.334
843	6/19/2014 11:54	11.528
844	6/19/2014 12:09	12.013
845	6/19/2014 12:24	11.819
846	6/19/2014 12:39	11.819
847	6/19/2014 12:54	11.722
848	6/19/2014 13:09	11.819
849	6/19/2014 13:24	11.819
850	6/19/2014 13:39	11.916
851	6/19/2014 13:54	12.11
852	6/19/2014 14:09	12.11
853	6/19/2014 14:24	12.11
854	6/19/2014 14:39	12.11
855	6/19/2014 14:54	12.207
856	6/19/2014 15:09	12.401
857	6/19/2014 15:24	12.304
858	6/19/2014 15:39	12.594
859	6/19/2014 15:54	12.497
860	6/19/2014 16:09	12.304
861	6/19/2014 16:24	12.304
862	6/19/2014 16:39	12.401
863	6/19/2014 16:54	12.207
864	6/19/2014 17:09	12.304
865	6/19/2014 17:24	12.304
866	6/19/2014 17:39	12.304
867	6/19/2014 17:54	12.304
868	6/19/2014 18:09	12.304
869	6/19/2014 18:24	12.207
870	6/19/2014 18:39	12.304
871	6/19/2014 18:54	12.304
872	6/19/2014 19:09	12.304
873	6/19/2014 19:24	12.304
874	6/19/2014 19:39	12.304
875	6/19/2014 19:54	12.304
876	6/19/2014 20:09	12.304